Joplin, MO

4:52 PM CDT on March 27, 2017 (GMT -0500)
Joplin Regional

Weather History for KJLN - October, 2012

Change the Weather History Date:

Sunday, October 21, 2012

  Actual Average Record
Temperature  
Mean Temperature 70 °F 58 °F  
Max Temperature 78 °F 70 °F 89 °F (1978)
Min Temperature 62 °F 47 °F 27 °F (1987)
Degree Days  
Heating Degree Days 0 8  
Month to date heating degree days 166 119  
Since 1 July heating degree days 190 161  
Cooling Degree Days 5 1  
Month to date cooling degree days 15 39  
Year to date cooling degree days 2076 1681  
Growing Degree Days 20 (Base 50)    
Moisture  
Dew Point 60 °F    
Average Humidity 68    
Maximum Humidity 79    
Minimum Humidity 56    
Precipitation  
Precipitation 0.00 in 0.14 in 1.48 in (1972)
Month to date precipitation 4.56 2.75  
Year to date precipitation 35.58 38.67  
Snow  
Snow 0.00 in - - ()
Month to date snowfall 0.0  
Snow Depth 0.00 in    
Sea Level Pressure  
Sea Level Pressure 29.80 in    
Wind  
Wind Speed 14 mph (South)    
Max Wind Speed 22 mph    
Max Gust Speed 29 mph    
Visibility 10 miles    
Events      
T = Trace of Precipitation, MM = Missing Value Source: NWS Daily Summary

Daily Weather History Graph

Daily Weather History Graph

Search for Another Location

Airport or City:

Trip Planner

Search our weather history database for the weather conditions in past years. The results will help you decide how hot, cold, wet, or windy it might be!

Date:

Astronomy

Oct. 21, 2012 Rise Set
Actual Time 7:31 AM CDT 6:32 PM CDT
Civil Twilight 7:05 AM CDT 6:58 PM CDT
Nautical Twilight 6:35 AM CDT 7:29 PM CDT
Astronomical Twilight 6:04 AM CDT 7:59 PM CDT
Moon 1:50 PM CDT (10/21) No Moon Set
Length of Visible Light 11h 53m
Length of Day
11h 00m
Waxing Crescent, 45% of the Moon is Illuminated
Oct 21
Waxing Crescent
Oct 21
First Quarter
Oct 29
Full
Nov 6
Last Quarter
Nov 13
New

Hourly Weather History & Observations

Time (CDT) Temp. Dew Point Humidity Pressure Visibility Wind Dir Wind Speed Gust Speed Precip Events Conditions
12:53 AM 64.9 °F 48.9 °F 56% 29.78 in 10.0 mi South 12.7 mph - N/A   Clear
1:53 AM 64.9 °F 50.0 °F 58% 29.78 in 10.0 mi South 12.7 mph - N/A   Clear
2:53 AM 64.9 °F 51.1 °F 61% 29.78 in 10.0 mi South 11.5 mph - N/A   Clear
3:53 AM 64.0 °F 51.1 °F 63% 29.77 in 10.0 mi South 10.4 mph - N/A   Clear
4:53 AM 64.0 °F 51.1 °F 63% 29.78 in 10.0 mi South 11.5 mph - N/A   Clear
5:53 AM 63.0 °F 52.0 °F 67% 29.78 in 10.0 mi SSE 11.5 mph - N/A   Clear
6:53 AM 63.0 °F 52.0 °F 67% 29.80 in 10.0 mi SSE 10.4 mph - N/A   Clear
7:53 AM 63.0 °F 54.0 °F 72% 29.81 in 10.0 mi SSE 9.2 mph - N/A   Partly Cloudy
8:53 AM 66.0 °F 55.9 °F 70% 29.82 in 10.0 mi SSE 11.5 mph - N/A   Mostly Cloudy
9:53 AM 70.0 °F 61.0 °F 73% 29.82 in 10.0 mi South 12.7 mph - N/A   Mostly Cloudy
10:53 AM 73.9 °F 64.0 °F 71% 29.83 in 10.0 mi South 16.1 mph 24.2 mph N/A   Overcast
11:53 AM 75.9 °F 66.0 °F 71% 29.82 in 10.0 mi South 16.1 mph 26.5 mph N/A   Overcast
12:53 PM 75.9 °F 66.0 °F 71% 29.81 in 10.0 mi South 18.4 mph 23.0 mph N/A   Overcast
1:53 PM 75.9 °F 66.0 °F 71% 29.80 in 10.0 mi South 15.0 mph 23.0 mph N/A   Overcast
2:53 PM 75.9 °F 66.0 °F 71% 29.78 in 10.0 mi SSE 13.8 mph 23.0 mph N/A   Overcast
3:53 PM 77.0 °F 66.9 °F 71% 29.77 in 10.0 mi SSE 12.7 mph 23.0 mph N/A   Overcast
4:53 PM 75.9 °F 66.0 °F 71% 29.78 in 10.0 mi South 11.5 mph - N/A   Overcast
5:53 PM 75.9 °F 66.0 °F 71% 29.78 in 10.0 mi SSE 12.7 mph - N/A   Overcast
6:53 PM 75.0 °F 64.9 °F 71% 29.79 in 10.0 mi South 12.7 mph 20.7 mph N/A   Overcast
7:53 PM 73.9 °F 64.9 °F 73% 29.81 in 10.0 mi SSE 13.8 mph 21.9 mph N/A   Overcast
8:53 PM 72.0 °F 64.0 °F 76% 29.81 in 10.0 mi SSE 17.3 mph 25.3 mph N/A   Clear
9:53 PM 72.0 °F 64.0 °F 76% 29.82 in 10.0 mi South 13.8 mph 23.0 mph N/A   Clear
10:53 PM 72.0 °F 64.9 °F 78% 29.82 in 10.0 mi South 15.0 mph 20.7 mph N/A   Clear
11:53 PM 72.0 °F 64.9 °F 78% 29.81 in 10.0 mi South 16.1 mph 24.2 mph N/A   Clear